Location: Newark
(49.9828°N, 3.1606°E)
Time: 23:16:55
(UTC+00:00)

Envisat - Pass Details

Date: 28 January 2020
Orbit: 764 x 766 km, 98.1° (Epoch: 19 February)

Event Time Altitude Azimuth Distance (km) Brightness Sun altitude
Rises 17:17:29 0° 160° (SSE) 3,222 6.2 -7.2°
Reaches altitude 10° 17:19:46 10° 160° (SSE) 2,299 5.5 -7.6°
Maximum altitude 17:24:51 81° 74° (ENE) 782 3.0 -8.3°
Drops below altitude 10° 17:29:57 10° 348° (NNW) 2,315 5.4 -9.1°
Sets 17:32:16 0° 347° (NNW) 3,246 6.2 -9.5°
